Погода в Эденвале

ЮАР     26°08′43″S   28°09′17″E
темп.,
°C
ветер,
м/с
пор.,
м/с
влажн.,
%
обл.,
%
осадки,
мм/ч
давл.,
гПа
погр.,
м
13 мая, чт
чт1323:00+16ююз25250 0.0 1022133
02:00+14ююз24280 0.0 1021107
05:00+13ю22310 0.0 102161
08:00+14ююв11290 0.0 102398
11:00+20сз11170 0.0 1022630
14:00+23сз23110 0.0 10181725
17:00+22ссз23110 0.0 1018668
20:00+19сз24160 0.0 102090
14 мая, пт
пт1423:00+17зюз11190 0.0 102013
02:00+15з00200 0.0 102010
05:00+14з11230 0.0 102010
08:00+15ссз01220 0.0 102154
11:00+21зсз11160 0.0 10191078
14:00+23сз22120 0.0 10161807
17:00+22сз22120 0.0 10151661
20:00+19сз37170 0.0 1017341
15 мая, сб
сб1523:00+17зсз24200 0.0 1018104
02:00+15з22240 0.0 101730
05:00+14з12270 0.0 101735
08:00+15з15240 0.0 1018187
11:00+20з46160 0.0 10162034
14:00+23з45130 0.0 10132577
17:00+21зюз35120 0.0 10132612
20:00+19зсз13160 0.0 101588
16 мая, вс
вс1623:00+17з23190 0.0 101677
02:00+15з12250 0.0 101555
05:00+15з22270 0.0 101531
08:00+15зсз14260 0.0 1017160
11:00+21зсз59180 0.0 10152027
14:00+24зюз59140 0.0 10112853
17:00+23з58150 0.0 10122658
20:00+20з39200 0.0 1015704
17 мая, пн
пн1723:00+18зюз310240 0.0 1016481
02:00+15юз39290 0.0 1016375
05:00+13юз37352 0.0 1017292
08:00+13ююз24380 0.0 1019244
11:00+18зюз24240 0.0 1018923
14:00+22зюз36150 0.0 10151932
17:00+20зюз35180 0.0 10161689
20:00+17ююз13243 0.0 101995